Fremont, MI

7:55 PM EST on December 16, 2017 (GMT -0500)
Fremont

Weather History for KFFX - December, 2012

Change the Weather History Date:

Friday, December 21, 2012

  Actual Average (KMKG) Record (KMKG)
Temperature  
Mean Temperature 30 °F -  
Max Temperature 32 °F 32 °F 60 °F (1967)
Min Temperature 29 °F 20 °F -3 °F (1901)
Degree Days  
Heating Degree Days 34    
Moisture  
Dew Point 28 °F    
Average Humidity 86    
Maximum Humidity 99    
Minimum Humidity 72    
Precipitation  
Precipitation 0.00 in - - ()
Sea Level Pressure  
Sea Level Pressure 29.63 in    
Wind  
Wind Speed 20 mph (NW)    
Max Wind Speed 34 mph    
Max Gust Speed 43 mph    
Visibility 7 miles    
Events Snow    
Averages and records for this station are not official NWS values.
T = Trace of Precipitation, MM = Missing Value Source: NWS Daily Summary

Daily Weather History Graph

Daily Weather History Graph

Search for Another Location

Airport or City:

Trip Planner

Search our weather history database for the weather conditions in past years. The results will help you decide how hot, cold, wet, or windy it might be!

Date:

Astronomy

Dec. 21, 2012 Rise Set
Actual Time 8:13 AM EST 5:10 PM EST
Civil Twilight 7:41 AM EST 5:43 PM EST
Nautical Twilight 7:04 AM EST 6:19 PM EST
Astronomical Twilight 6:30 AM EST 6:54 PM EST
Moon 1:04 PM EST (12/21) 1:52 AM EST (12/21)
Length of Visible Light 10h 02m
Length of Day
8h 57m
Waxing Gibbous, 64% of the Moon is Illuminated
Dec 21
Waxing Gibbous
Dec 28
Full
Jan 4
Last Quarter
Jan 11
New
Jan 18
First Quarter

Hourly Weather History & Observations

Time (EST) Temp. Windchill Dew Point Humidity Pressure Visibility Wind Dir Wind Speed Gust Speed Precip Events Conditions
12:14 AM 32.5 °F 23.7 °F 32.2 °F 99% 29.17 in 3.0 mi NW 11.5 mph - N/A Snow Light Snow
12:34 AM 32.5 °F 23.2 °F 32.2 °F 99% 29.18 in 1.8 mi NW 12.7 mph - N/A Snow Light Snow
12:54 AM 32.5 °F 23.7 °F 32.2 °F 99% 29.19 in 2.0 mi NW 11.5 mph - N/A Snow Light Snow
1:15 AM 32.9 °F 22.8 °F 32.2 °F 97% 29.20 in 4.0 mi NW 15.0 mph 20.7 mph N/A Snow Light Snow
1:34 AM 32.9 °F 22.4 °F 32.0 °F 96% 29.21 in 4.0 mi NW 16.1 mph - N/A Snow Light Snow
1:54 AM 32.7 °F 21.1 °F 32.0 °F 97% 29.22 in 4.0 mi NW 19.6 mph 27.6 mph N/A Snow Light Snow
2:14 AM 32.5 °F 19.9 °F 31.8 °F 97% 29.23 in 5.0 mi NW 23.0 mph 31.1 mph N/A Snow Light Snow
2:34 AM 32.4 °F 20.0 °F 31.8 °F 98% 29.25 in 3.0 mi NW 21.9 mph 31.1 mph N/A Snow Light Snow
2:54 AM 32.2 °F 18.9 °F 31.3 °F 96% 29.27 in 7.0 mi NW 25.3 mph 34.5 mph N/A Snow Light Snow
3:14 AM 32.0 °F 20.8 °F 31.1 °F 96% 29.29 in 5.0 mi NW 17.3 mph 24.2 mph N/A Snow Light Snow
3:35 AM 32.2 °F 19.1 °F 30.2 °F 92% 29.29 in 10.0 mi NW 24.2 mph 35.7 mph N/A   Overcast
3:54 AM 32.0 °F 20.1 °F 30.6 °F 94% 29.32 in 10.0 mi NW 19.6 mph 31.1 mph N/A   Overcast
4:14 AM 32.0 °F 18.4 °F 29.7 °F 91% 29.33 in 10.0 mi NW 26.5 mph 35.7 mph N/A   Overcast
4:34 AM 32.0 °F 19.8 °F 29.3 °F 90% 29.35 in 10.0 mi NW 20.7 mph 34.5 mph N/A Snow Light Snow
4:54 AM 32.0 °F 20.5 °F 30.2 °F 93% 29.36 in 3.0 mi NW 18.4 mph 29.9 mph N/A Snow Light Snow
5:15 AM 32.0 °F 19.2 °F 29.8 °F 92% 29.38 in 4.0 mi NW 23.0 mph 35.7 mph N/A Snow Light Snow
5:34 AM 31.8 °F 18.4 °F 29.3 °F 90% 29.39 in 5.0 mi NW 25.3 mph 34.5 mph N/A Snow Light Snow
6:14 AM 31.8 °F 17.9 °F 28.6 °F 88% 29.41 in 7.0 mi NW 27.6 mph 41.4 mph N/A Snow Light Snow
6:34 AM 31.1 °F 18.0 °F 28.4 °F 90% 29.43 in 3.0 mi NW 23.0 mph 36.8 mph N/A Snow Light Snow
6:54 AM 31.1 °F 18.0 °F 29.3 °F 93% 29.44 in 2.5 mi NW 23.0 mph 34.5 mph N/A Snow Light Snow
7:14 AM 31.1 °F 16.9 °F 28.4 °F 90% 29.45 in 5.0 mi NW 27.6 mph 39.1 mph N/A Snow Light Snow
7:34 AM 31.5 °F 18.8 °F 28.4 °F 88% 29.47 in 5.0 mi NW 21.9 mph 33.4 mph N/A Snow Light Snow
7:54 AM 31.6 °F 19.0 °F 28.2 °F 87% 29.49 in 10.0 mi NW 21.9 mph 40.3 mph N/A   Overcast
8:14 AM 31.6 °F 20.7 °F 29.3 °F 91% 29.50 in 3.0 mi NW 16.1 mph 29.9 mph N/A Snow Light Snow
8:35 AM 31.1 °F 20.9 °F 30.4 °F 97% 29.51 in 0.8 mi NW 13.8 mph 18.4 mph N/A Snow Light Snow
8:54 AM 32.0 °F 17.9 °F 29.5 °F 90% 29.52 in 3.0 mi NW 28.8 mph 39.1 mph N/A Snow Light Snow
9:14 AM 32.0 °F 19.8 °F 30.6 °F 94% 29.53 in 1.8 mi WNW 20.7 mph 27.6 mph N/A Snow Light Snow
9:34 AM 32.0 °F 20.5 °F 31.1 °F 96% 29.54 in 1.2 mi NW 18.4 mph 25.3 mph N/A Snow Light Snow
9:54 AM 32.0 °F 20.1 °F 30.6 °F 94% 29.56 in 1.5 mi NW 19.6 mph 31.1 mph N/A Snow Light Snow
10:14 AM 32.0 °F 17.4 °F 29.3 °F 90% 29.57 in 4.0 mi NW 31.1 mph 40.3 mph N/A   Overcast
10:34 AM 32.0 °F 18.9 °F 29.7 °F 91% 29.59 in 4.0 mi NW 24.2 mph 39.1 mph N/A   Overcast
10:54 AM 32.0 °F 19.2 °F 30.2 °F 93% 29.61 in 3.0 mi NW 23.0 mph 34.5 mph N/A Snow Light Snow
11:14 AM 32.4 °F 18.6 °F 29.8 °F 90% 29.61 in 10.0 mi NW 27.6 mph 39.1 mph N/A   Overcast
11:35 AM 32.0 °F 20.1 °F 30.7 °F 95% 29.62 in 1.0 mi NW 19.6 mph 27.6 mph N/A Snow Light Snow
11:54 AM 32.0 °F 19.8 °F 31.1 °F 96% 29.63 in 1.0 mi NW 20.7 mph 29.9 mph N/A Snow Light Snow
12:14 PM 32.0 °F 19.2 °F 29.7 °F 91% 29.64 in 3.0 mi NW 23.0 mph 35.7 mph N/A Snow Light Snow
12:34 PM 32.9 °F 19.3 °F 28.2 °F 83% 29.64 in 7.0 mi NW 27.6 mph 40.3 mph N/A   Overcast
12:54 PM 32.2 °F 19.7 °F 29.5 °F 90% 29.66 in 2.0 mi NW 21.9 mph 32.2 mph N/A Snow Light Snow
1:15 PM 32.4 °F 18.1 °F 28.0 °F 84% 29.66 in 10.0 mi NW 29.9 mph 41.4 mph N/A   Overcast
1:34 PM 32.5 °F 18.1 °F 27.5 °F 82% 29.67 in 7.0 mi NW 31.1 mph 39.1 mph N/A   Overcast
1:54 PM 32.9 °F 18.0 °F 27.1 °F 79% 29.68 in 10.0 mi NW 34.5 mph 41.4 mph N/A   Overcast
2:14 PM 32.7 °F 18.8 °F 27.0 °F 79% 29.70 in 10.0 mi NW 28.8 mph 42.6 mph N/A   Overcast
2:34 PM 32.5 °F 18.8 °F 26.8 °F 79% 29.71 in 10.0 mi NW 27.6 mph 40.3 mph N/A   Overcast
2:55 PM 32.5 °F 17.7 °F 26.6 °F 79% 29.73 in 10.0 mi NW 33.4 mph 40.3 mph N/A   Overcast
3:14 PM 32.4 °F 19.4 °F 26.6 °F 79% 29.75 in 10.0 mi NW 24.2 mph 38.0 mph N/A   Overcast
3:34 PM 32.4 °F 19.1 °F 26.6 °F 79% 29.76 in 10.0 mi NW 25.3 mph 40.3 mph N/A   Overcast
3:55 PM 32.2 °F 17.2 °F 26.6 °F 80% 29.78 in 10.0 mi NW 33.4 mph 40.3 mph N/A   Overcast
4:14 PM 32.2 °F 20.0 °F 26.4 °F 79% 29.79 in 10.0 mi NW 20.7 mph 39.1 mph N/A   Overcast
4:34 PM 32.2 °F 18.6 °F 26.4 °F 79% 29.80 in 10.0 mi NW 26.5 mph 38.0 mph N/A   Overcast
4:54 PM 32.0 °F 17.9 °F 26.1 °F 79% 29.82 in 10.0 mi NW 28.8 mph 40.3 mph N/A   Overcast
5:14 PM 32.0 °F 17.6 °F 25.7 °F 78% 29.83 in 10.0 mi NW 29.9 mph 41.4 mph N/A   Overcast
5:34 PM 32.0 °F 18.6 °F 25.5 °F 77% 29.85 in 10.0 mi NW 25.3 mph 33.4 mph N/A   Overcast
5:54 PM 32.0 °F 17.9 °F 25.9 °F 78% 29.86 in 10.0 mi NW 28.8 mph 35.7 mph N/A   Overcast
6:14 PM 32.0 °F 18.4 °F 25.7 °F 78% 29.88 in 10.0 mi NW 26.5 mph 38.0 mph N/A   Overcast
6:34 PM 32.0 °F 19.5 °F 25.0 °F 75% 29.89 in 10.0 mi NW 21.9 mph 34.5 mph N/A   Overcast
6:54 PM 32.0 °F 20.8 °F 25.5 °F 77% 29.90 in 10.0 mi NW 17.3 mph 28.8 mph N/A   Overcast
7:14 PM 32.0 °F 18.9 °F 25.0 °F 75% 29.91 in 10.0 mi NW 24.2 mph 29.9 mph N/A   Overcast
7:34 PM 32.0 °F 18.6 °F 24.8 °F 75% 29.92 in 10.0 mi NW 25.3 mph 29.9 mph N/A   Overcast
7:54 PM 32.0 °F 19.8 °F 24.4 °F 74% 29.93 in 10.0 mi NW 20.7 mph 32.2 mph N/A   Overcast
8:14 PM 32.0 °F 20.1 °F 23.9 °F 72% 29.94 in 10.0 mi NW 19.6 mph 29.9 mph N/A   Overcast
8:34 PM 31.8 °F 20.2 °F 24.1 °F 73% 29.95 in 10.0 mi NW 18.4 mph 28.8 mph N/A   Overcast
8:54 PM 31.6 °F 20.4 °F 24.6 °F 75% 29.95 in 10.0 mi NW 17.3 mph 26.5 mph N/A   Overcast
9:14 PM 31.6 °F 21.2 °F 25.2 °F 77% 29.96 in 10.0 mi NW 15.0 mph 21.9 mph N/A   Overcast
9:34 PM 31.5 °F 19.4 °F 25.2 °F 78% 29.97 in 10.0 mi NW 19.6 mph 27.6 mph N/A   Overcast
9:54 PM 30.7 °F 18.8 °F 25.7 °F 82% 29.98 in 10.0 mi WNW 18.4 mph 27.6 mph N/A   Overcast
10:14 PM 30.2 °F 18.1 °F 25.5 °F 83% 29.98 in 10.0 mi WNW 18.4 mph 26.5 mph N/A   Overcast
10:35 PM 29.8 °F 18.9 °F 25.3 °F 83% 29.98 in 10.0 mi WNW 15.0 mph 26.5 mph N/A   Overcast
10:54 PM 29.7 °F 18.2 °F 25.2 °F 83% 29.99 in 10.0 mi WNW 16.1 mph 21.9 mph N/A   Overcast
11:14 PM 29.5 °F 16.8 °F 23.9 °F 80% 30.00 in 10.0 mi WNW 19.6 mph 25.3 mph N/A   Overcast
11:35 PM 29.3 °F 17.7 °F 22.8 °F 77% 30.01 in 10.0 mi WNW 16.1 mph 26.5 mph N/A   Overcast
11:54 PM 29.1 °F 17.9 °F 23.4 °F 79% 30.02 in 10.0 mi WNW 15.0 mph 23.0 mph N/A   Overcast